This is the latest recevied weather packets stored in our database for station/object DB0WV-6. If no packets are shown the sender has not sent any weather packets the latest 10 day(s).
| Time | Temp. | Humidity | Pressure | Rain* | Wind** | Luminosity | Snow |
|---|---|---|---|---|---|---|---|
| 1777768814 | 15° C | 46% | 1015 hPa | 0 mm | - | - | - |
| 1777764013 | 16.11° C | 42% | 1015.3 hPa | 0 mm | - | - | - |
| 1777762813 | 16.11° C | 43% | 1015.4 hPa | 0 mm | - | - | - |
| 1777761034 | 16.67° C | 43% | 1015.6 hPa | 0 mm | - | - | - |
| 1777760414 | 16.67° C | 43% | 1015.6 hPa | 0 mm | - | - | - |
| 1777755014 | 16.67° C | 43% | 1015.8 hPa | 0 mm | - | - | - |
| 1777750814 | 17.22° C | 43% | 1016.1 hPa | 0 mm | - | - | - |
| 1777750214 | 17.78° C | 42% | 1016.1 hPa | 0 mm | - | - | - |
| 1777746614 | 20° C | 36% | 1016 hPa | 0 mm | - | - | - |
| 1777744814 | 21.11° C | 34% | 1016 hPa | 0 mm | - | - | - |
| 1777743014 | 23.33° C | 29% | 1016.3 hPa | 0 mm | - | - | - |
| 1777742415 | 23.33° C | 31% | 1016.5 hPa | 0 mm | - | - | - |
| 1777741814 | 23.33° C | 29% | 1016.5 hPa | 0 mm | - | - | - |
| 1777740614 | 22.78° C | 29% | 1016.6 hPa | 0 mm | - | - | - |
| 1777736414 | 24.44° C | 26% | 1017.5 hPa | 0 mm | - | - | - |
| 1777735214 | 26.11° C | 23% | 1018 hPa | 0 mm | - | - | - |
| 1777734014 | 27.22° C | 19% | 1018.3 hPa | 0 mm | - | - | - |
| 1777732214 | 26.67° C | 21% | 1018.6 hPa | 0 mm | - | - | - |
| 1777728014 | 25° C | 24% | 1019.4 hPa | 0 mm | - | - | - |
| 1777727415 | 24.44° C | 24% | 1019.4 hPa | 0 mm | - | - | - |
| 1777723814 | 22.78° C | 33% | 1019.9 hPa | 0 mm | - | - | - |
| 1777723214 | 22.78° C | 30% | 1020.1 hPa | 0 mm | - | - | - |
| 1777721414 | 23.89° C | 32% | 1020.6 hPa | 0 mm | - | - | - |
| 1777715416 | 21.67° C | 38% | 1021.3 hPa | 0 mm | - | - | - |
| 1777711816 | 19.44° C | 42% | 1021.5 hPa | 0 mm | - | - | - |
* Rain latest hour (hover to see other rain measurements)
** Current wind speed in m/s (hover to see current wind gust speed)